{"data":{"norad_id":47267,"epoch":"2026-09-20T03:10:26.745600Z","epoch_age_seconds":46129,"freshness":"FRESH","line1":"1 47267U 20100K   26263.13225400 -.00000220  00000+0 -64795-3 0  9994","line2":"2 47267  87.8983 331.8117 0002228  96.4024 263.7358 13.12442181277090","mean_motion":13.12442181,"eccentricity":0.0002228,"inclination_deg":87.8983,"raan_deg":331.8117,"arg_perigee_deg":96.4024,"mean_anomaly_deg":263.7358,"bstar":-0.00064795,"rev_number":27709,"period_min":109.71911912362,"perigee_km":1212.0349822239,"apogee_km":1215.417916577,"semimajor_km":7591.8634494004,"source":"CELESTRAK","updated_at":"2026-09-20T09:00:44.577661Z"}}